User: anonymous   Login
Location: ??
(35.4032°N, 139.3073°E)
Time: 19:56:28
(UTC+00:00)
Language:

CZ-2C R/B - Orbit

View from above orbital plane
View from above orbital plane
View from above satellite
View from above satellite

Ground track
Ground track

The orbit data is extracted from the following two-line orbital elements,

1 28448U 04029B   24165.87794938  .00003812  00000-0  16453-2 0  9999
2 28448  87.6073 248.3328 7278272 359.2569   0.1510  2.27499087154514
Epoch (UTC): 13 June 2024 21:04:14
Eccentricity: 0.7278272
inclination: 87.6073°
perigee height: 268 km
apogee height: 35815 km
right ascension of ascending node: 248.3328°
argument of perigee: 359.2569°
revolutions per day: 2.27499087
mean anomaly at epoch: 0.1510°
orbit number at epoch: 15451

The dashed part of the orbit path shows where the satellite is in the earth's shadow,  

DLR